TimeEDT,TemperatureF,Dew PointF,Humidity,Sea Level PressureIn,VisibilityMPH,Wind Direction,Wind SpeedMPH,Gust SpeedMPH,PrecipitationIn,Events,Conditions,WindDirDegrees,DateUTC
12:36 AM,73.4,71.6,94,30.12,10.0,ENE,15.0,23.0,0.02,Rain,Light Rain,70,2013-08-18 04:36:00
12:49 AM,73.4,71.6,94,30.11,2.5,ENE,13.8,-,0.07,Rain,Light Rain,70,2013-08-18 04:49:00
12:56 AM,73.0,72.0,96,30.12,2.5,East,12.7,-,0.07,Rain,Rain,80,2013-08-18 04:56:00
1:09 AM,73.4,71.6,94,30.11,7.0,ENE,16.1,-,0.01,Rain,Light Rain,70,2013-08-18 05:09:00
1:26 AM,73.4,71.6,94,30.10,10.0,East,13.8,20.7,0.01,,Overcast,80,2013-08-18 05:26:00
1:41 AM,73.4,71.6,94,30.10,9.0,ENE,15.0,21.9,0.01,Rain,Light Rain,70,2013-08-18 05:41:00
1:56 AM,73.0,72.0,96,30.10,6.0,ENE,13.8,23.0,0.01,Rain,Light Rain,70,2013-08-18 05:56:00
2:31 AM,73.4,71.6,94,30.08,2.0,ENE,16.1,21.9,0.04,Rain,Rain,70,2013-08-18 06:31:00
2:43 AM,73.4,71.6,94,30.08,6.0,East,15.0,20.7,0.04,Rain,Light Rain,80,2013-08-18 06:43:00
2:56 AM,73.0,72.0,96,30.09,10.0,East,15.0,23.0,0.04,,Overcast,80,2013-08-18 06:56:00
3:12 AM,73.4,71.6,94,30.07,8.0,East,13.8,-,0.00,Rain,Light Rain,80,2013-08-18 07:12:00
3:56 AM,73.0,72.0,96,30.08,4.0,ENE,15.0,20.7,0.02,Rain,Light Rain,70,2013-08-18 07:56:00
4:12 AM,73.4,71.6,94,30.07,2.5,ENE,11.5,-,0.02,Rain,Light Rain,70,2013-08-18 08:12:00
4:36 AM,73.4,71.6,94,30.06,1.5,ENE,15.0,-,0.15,Rain,Heavy Rain,70,2013-08-18 08:36:00
4:42 AM,73.4,71.6,94,30.06,1.5,East,13.8,-,0.21,Rain,Heavy Rain,80,2013-08-18 08:42:00
4:56 AM,73.0,72.0,96,30.08,6.0,ENE,12.7,-,0.22,Rain,Light Rain,70,2013-08-18 08:56:00
5:56 AM,73.0,72.0,96,30.09,5.0,East,9.2,-,0.01,Rain,Light Rain,80,2013-08-18 09:56:00
6:56 AM,73.9,72.0,93,30.11,5.0,Calm,Calm,-,0.00,Rain,Light Rain,0,2013-08-18 10:56:00
7:28 AM,73.4,73.4,100,30.10,5.0,Calm,Calm,-,0.02,,Overcast,0,2013-08-18 11:28:00
7:51 AM,73.4,73.4,100,30.10,5.0,North,4.6,-,0.02,,Overcast,350,2013-08-18 11:51:00
7:56 AM,73.9,73.0,97,30.12,6.0,NNW,4.6,-,0.02,,Overcast,340,2013-08-18 11:56:00
8:56 AM,75.0,73.0,94,30.12,5.0,North,5.8,-,N/A,,Overcast,350,2013-08-18 12:56:00
9:56 AM,73.9,73.0,97,30.14,6.0,WNW,5.8,-,0.00,Rain,Light Rain,300,2013-08-18 13:56:00
10:26 AM,75.2,73.4,94,30.13,6.0,NW,8.1,-,0.03,,Overcast,310,2013-08-18 14:26:00
10:47 AM,75.2,73.4,94,30.13,6.0,WNW,8.1,-,0.03,,Overcast,300,2013-08-18 14:47:00
10:56 AM,77.0,75.0,94,30.14,10.0,WNW,9.2,-,0.03,,Overcast,300,2013-08-18 14:56:00
11:56 AM,75.9,73.0,91,30.16,10.0,West,8.1,-,N/A,,Overcast,280,2013-08-18 15:56:00
12:05 PM,75.2,71.6,89,30.15,8.0,WNW,8.1,-,0.00,Rain,Light Rain,300,2013-08-18 16:05:00
12:26 PM,75.2,73.4,94,30.14,10.0,WNW,8.1,-,0.00,,Overcast,300,2013-08-18 16:26:00
12:56 PM,77.0,73.0,88,30.14,10.0,WNW,8.1,-,0.00,,Mostly Cloudy,300,2013-08-18 16:56:00
1:56 PM,79.0,73.0,82,30.14,10.0,NW,12.7,-,N/A,,Mostly Cloudy,320,2013-08-18 17:56:00
2:56 PM,81.0,73.0,77,30.13,10.0,NNW,12.7,-,N/A,,Mostly Cloudy,340,2013-08-18 18:56:00
3:56 PM,79.0,71.1,77,30.13,10.0,NNW,13.8,-,N/A,,Mostly Cloudy,340,2013-08-18 19:56:00
4:56 PM,77.0,71.1,82,30.13,10.0,North,11.5,-,N/A,,Mostly Cloudy,350,2013-08-18 20:56:00
5:56 PM,75.0,70.0,84,30.14,10.0,NNE,8.1,-,N/A,,Mostly Cloudy,20,2013-08-18 21:56:00
6:26 PM,73.4,69.8,88,30.14,10.0,North,6.9,-,N/A,,Overcast,360,2013-08-18 22:26:00
6:56 PM,72.0,69.1,91,30.14,10.0,NE,9.2,-,N/A,,Overcast,40,2013-08-18 22:56:00
7:56 PM,72.0,68.0,87,30.16,10.0,NNE,6.9,-,N/A,,Overcast,30,2013-08-18 23:56:00
8:18 PM,71.6,68.0,88,30.16,10.0,NNE,9.2,-,0.00,,Light Drizzle,20,2013-08-19 00:18:00
8:56 PM,70.0,66.0,87,30.17,10.0,NNE,9.2,-,0.00,,Light Drizzle,30,2013-08-19 00:56:00
9:29 PM,69.8,66.2,88,30.18,10.0,NE,11.5,-,0.00,,Overcast,40,2013-08-19 01:29:00
9:56 PM,70.0,64.9,84,30.20,10.0,NE,10.4,-,0.00,,Overcast,40,2013-08-19 01:56:00
10:30 PM,69.8,64.4,83,30.19,10.0,NE,8.1,-,N/A,,Overcast,40,2013-08-19 02:30:00
10:56 PM,70.0,66.0,87,30.20,10.0,NE,6.9,-,N/A,,Overcast,40,2013-08-19 02:56:00
11:56 PM,70.0,64.9,84,30.20,10.0,NE,4.6,-,N/A,,Overcast,40,2013-08-19 03:56:00